Location: Elk Horn Observatory
(36.6768°N, 80.8309°W)
Time: 21:32:07
(UTC-05:00)

Tiangong 2 - Visible Passes

Search period start: 17 November 2018 00:00
Search period end: 27 November 2018 00:00
Orbit: 382 x 393 km, 42.8° (Epoch: 17 November)

Date Brightness Start Highest point End Pass type
(mag) Time Alt. Az. Time Alt. Az. Time Alt. Az.
23 Nov 3.8 05:56:59 10° SSW 05:59:22 19° SE 06:01:46 10° E visible
24 Nov 4.3 05:00:28 10° SSE 05:00:59 10° SE 05:01:30 10° SE visible
24 Nov 1.3 06:34:10 10° WSW 06:37:21 72° SSE 06:40:32 10° ENE visible
25 Nov 2.4 05:37:22 23° SSW 05:38:48 38° SSE 05:41:48 10° ENE visible
26 Nov 4.5 04:42:13 13° E 04:42:13 13° E 04:42:48 10° E visible
26 Nov 1.1 06:14:32 16° WSW 06:16:56 63° NNW 06:20:06 10° ENE visible
